Location: Rounton
(54.4000°N, 1.3500°W)
Time: 14:29:41
(UTC+00:00)

Altair - Pass Details

Date: 08 December 2021
Orbit: 1501 x 1683 km, 47.2° (Epoch: 19 January)

Event Time Altitude Azimuth Distance (km) Brightness Sun altitude
Rises 21:53:23 0° 282° (WNW) 4,668 10.6 -50.8°
Reaches altitude 10° 21:58:15 10° 261° (W) 3,663 9.7 -51.3°
Enters shadow 21:59:56 13° 251° (WSW) 3,447 9.5 -51.5°
Maximum altitude 22:02:37 14° 232° (SW) 3,305 - -51.8°
Drops below altitude 10° 22:06:59 10° 202° (SSW) 3,646 - -52.2°
Sets 22:11:50 0° 180° (S) 4,632 - -52.7°
